Location: Cheyres
(46.8153°N, 6.7877°E)
Time: 07:13:52
(UTC+00:00)

AO-109 - Pass Details

Date: 10 July 2022
Orbit: 469 x 506 km, 60.7° (Epoch: 14 August)

Event Time Altitude Azimuth Distance (km) Brightness Sun altitude
Exits shadow 00:36:11 37° 123° (ESE) 762 ? -19.7°
Drops below altitude 10° 00:39:35 10° 58° (ENE) 1,668 ? -19.5°
Sets 00:41:51 0° 50° (NE) 2,561 ? -19.4°
